,,,PA_Meas_PMT16A,,PR_Meas_QMR101_102,,RH_Meas_QMH101,,SR_Meas_QMS101,,TA_Meas_QMH101,,GenWind,,GenWind,
date,time,status,PA,status,PR,status,RH,status,SR,status,TA,status,DirAvg,status,SpdAvg,
2009-07-16, 00:00:04,VALID,1000.49,VALID,0,VALID,77.1583,VALID,0,VALID,25.2217,VALID,135,VALID,0.450391,
2009-07-16, 00:01:04,VALID,1000.45,VALID,0,VALID,77.1355,VALID,0,VALID,25.2412,VALID,135,VALID,0.350781,
2009-07-16, 00:02:04,VALID,1000.45,VALID,0,VALID,76.815,VALID,0,VALID,25.2412,VALID,124,VALID,0.871484,
2009-07-16, 00:03:04,VALID,1000.45,VALID,0,VALID,77.2423,VALID,0,VALID,25.2607,VALID,121,VALID,0.728516,
2009-07-16, 00:04:04,VALID,1000.4,VALID,0,VALID,76.8761,VALID,0,VALID,25.2412,VALID,121,VALID,0.178516,
2009-07-16, 00:05:04,VALID,1000.43,VALID,0,VALID,77.1583,VALID,0,VALID,25.2607,VALID,67,VALID,1.10586,
2009-07-16, 00:06:04,VALID,1000.42,VALID,0,VALID,77.433,VALID,0,VALID,25.2802,VALID,78,VALID,0.545313,
2009-07-16, 00:07:04,VALID,1000.4,VALID,0,VALID,76.3344,VALID,0,VALID,25.2607,VALID,119,VALID,0.361719,
2009-07-16, 00:08:04,VALID,1000.38,VALID,0,VALID,70.4519,VALID,0,VALID,25.3388,VALID,174,VALID,2.44844,
2009-07-16, 00:09:04,VALID,1000.4,VALID,0,VALID,66.0649,VALID,0,VALID,26.0436,VALID,157,VALID,3.72734,
2009-07-16, 00:10:04,VALID,1000.34,VALID,0,VALID,63.3564,VALID,0,VALID,26.5513,VALID,159,VALID,3.93711,
2009-07-16, 00:11:04,VALID,1000.36,VALID,0,VALID,61.7847,VALID,0,VALID,26.9008,VALID,169,VALID,4.14531,
2009-07-16, 00:12:04,VALID,1000.35,VALID,0,VALID,60.8615,VALID,0,VALID,27.1352,VALID,165,VALID,5.55625,
2009-07-16, 00:13:04,VALID,1000.34,VALID,0,VALID,58.8091,VALID,0,VALID,27.4672,VALID,196,VALID,4.73164,
2009-07-16, 00:14:04,VALID,1000.28,VALID,0,VALID,57.7257,VALID,0,VALID,27.7212,VALID,175,VALID,6.70703,
2009-07-16, 00:15:04,VALID,1000.25,VALID,0,VALID,57.2221,VALID,0,VALID,27.8775,VALID,175,VALID,6.52031,
2009-07-16, 00:16:04,VALID,1000.28,VALID,0,VALID,57.6799,VALID,0,VALID,27.8579,VALID,178,VALID,6.82148,
2009-07-16, 00:17:04,VALID,1000.29,VALID,0,VALID,57.9622,VALID,0,VALID,27.8579,VALID,174,VALID,4.89102,
2009-07-16, 00:18:04,VALID,1000.28,VALID,0,VALID,57.3519,VALID,0.112286,VALID,27.8384,VALID,177,VALID,6.21875,
2009-07-16, 00:19:04,VALID,1000.34,VALID,0,VALID,57.7562,VALID,0,VALID,27.897,VALID,180,VALID,6.25664,
2009-07-16, 00:20:04,VALID,1000.31,VALID,0,VALID,57.9088,VALID,0,VALID,27.8579,VALID,170,VALID,4.21328,
2009-07-16, 00:21:04,VALID,1000.28,VALID,0,VALID,56.8559,VALID,0,VALID,27.9752,VALID,183,VALID,6.47695,
2009-07-16, 00:22:04,VALID,1000.22,VALID,0,VALID,56.6042,VALID,0.112286,VALID,28.0728,VALID,173,VALID,5.51445,
2009-07-16, 00:23:04,VALID,1000.22,VALID,0,VALID,56.3066,VALID,0,VALID,28.0924,VALID,174,VALID,5.11641,
2009-07-16, 00:24:04,VALID,1000.25,VALID,0,VALID,56.5965,VALID,0,VALID,28.1119,VALID,181,VALID,4.65469,
2009-07-16, 00:25:04,VALID,1000.2,VALID,0,VALID,56.8712,VALID,0,VALID,28.0728,VALID,172,VALID,3.79883,
2009-07-16, 00:26:04,VALID,1000.16,VALID,0,VALID,57.1077,VALID,0,VALID,28.0142,VALID,170,VALID,4.80781,
2009-07-16, 00:27:04,VALID,1000.13,VALID,0,VALID,57.7333,VALID,0,VALID,27.9361,VALID,166,VALID,3.53789,
2009-07-16, 00:28:04,VALID,1000.13,VALID,0,VALID,57.6342,VALID,0,VALID,27.8796,VALID,173,VALID,4.48516,
2009-07-16, 00:29:04,VALID,1000.09,VALID,0,VALID,57.6113,VALID,0,VALID,27.8189,VALID,176,VALID,3.49688,
2009-07-16, 00:30:04,VALID,1000.07,VALID,0,VALID,57.3061,VALID,0,VALID,27.8384,VALID,198,VALID,3.62617,
2009-07-16, 00:31:04,VALID,1000.01,VALID,0,VALID,57.2832,VALID,0,VALID,27.8775,VALID,171,VALID,3.75977,
2009-07-16, 00:32:04,VALID,1000.06,VALID,0,VALID,57.7791,VALID,0,VALID,27.8579,VALID,176,VALID,4.6707,
2009-07-16, 00:33:04,VALID,1000.01,VALID,0,VALID,56.7796,VALID,0,VALID,27.897,VALID,178,VALID,5.8125,
2009-07-16, 00:34:04,VALID,999.964,VALID,0,VALID,56.299,VALID,0,VALID,28.0359,VALID,177,VALID,5.53594,
2009-07-16, 00:35:04,VALID,1000.01,VALID,0,VALID,55.9022,VALID,0,VALID,28.0728,VALID,189,VALID,3.38867,
2009-07-16, 00:36:04,VALID,1000.03,VALID,0,VALID,56.2074,VALID,0,VALID,28.0924,VALID,182,VALID,4.51953,
2009-07-16, 00:37:04,VALID,1000.02,VALID,0,VALID,56.093,VALID,0,VALID,28.0924,VALID,186,VALID,2.83047,
2009-07-16, 00:38:04,VALID,999.994,VALID,0,VALID,56.0701,VALID,0,VALID,28.0728,VALID,181,VALID,3.27695,
2009-07-16, 00:39:04,VALID,999.984,VALID,0,VALID,56.093,VALID,0,VALID,28.0728,VALID,173,VALID,3.49727,
2009-07-16, 00:40:04,VALID,999.956,VALID,0,VALID,56.5126,VALID,0,VALID,28.0142,VALID,172,VALID,3.1293,
2009-07-16, 00:41:04,VALID,999.913,VALID,0,VALID,56.3829,VALID,0,VALID,27.9752,VALID,186,VALID,3.53125,
2009-07-16, 00:42:04,VALID,999.918,VALID,0,VALID,56.8178,VALID,0,VALID,27.9361,VALID,174,VALID,3.25234,
2009-07-16, 00:43:04,VALID,999.907,VALID,0,VALID,56.2532,VALID,0,VALID,27.9556,VALID,180,VALID,3.99258,
2009-07-16, 00:44:04,VALID,999.875,VALID,0,VALID,55.8488,VALID,0,VALID,28.0945,VALID,201,VALID,3.37812,
2009-07-16, 00:45:04,VALID,999.913,VALID,0,VALID,56.0243,VALID,0,VALID,28.0945,VALID,193,VALID,3.14375,
2009-07-16, 00:46:04,VALID,999.834,VALID,0,VALID,55.3834,VALID,0,VALID,28.1336,VALID,172,VALID,5.59336,
2009-07-16, 00:47:04,VALID,999.839,VALID,0,VALID,55.4979,VALID,0,VALID,28.1705,VALID,173,VALID,4.26406,
2009-07-16, 00:48:04,VALID,999.859,VALID,0,VALID,55.269,VALID,0,VALID,28.1705,VALID,190,VALID,4.00508,
2009-07-16, 00:49:04,VALID,999.817,VALID,0,VALID,55.4445,VALID,0,VALID,28.151,VALID,196,VALID,3.12383,
2009-07-16, 00:50:04,VALID,999.774,VALID,0,VALID,55.3529,VALID,0,VALID,28.151,VALID,197,VALID,4.31641,
2009-07-16, 00:51:04,VALID,999.804,VALID,0,VALID,55.7496,VALID,0,VALID,28.151,VALID,178,VALID,3.77461,
2009-07-16, 00:52:04,VALID,999.757,VALID,0,VALID,55.8107,VALID,0,VALID,28.1119,VALID,193,VALID,2.58125,
2009-07-16, 00:53:04,VALID,999.764,VALID,0,VALID,55.9404,VALID,0,VALID,28.1119,VALID,186,VALID,4.49336,
2009-07-16, 00:54:04,VALID,999.793,VALID,0,VALID,55.5055,VALID,0,VALID,28.1119,VALID,201,VALID,4.16797,
2009-07-16, 00:55:04,VALID,999.753,VALID,0,VALID,55.6733,VALID,0,VALID,28.1531,VALID,179,VALID,4.35078,
2009-07-16, 00:56:04,VALID,999.768,VALID,0,VALID,56.1464,VALID,0,VALID,28.1119,VALID,188,VALID,3.05508,
2009-07-16, 00:57:04,VALID,999.721,VALID,0,VALID,56.2074,VALID,0,VALID,28.0728,VALID,191,VALID,2.90781,
2009-07-16, 00:58:04,VALID,999.722,VALID,0,VALID,56.1464,VALID,0,VALID,28.0533,VALID,200,VALID,2.68789,
2009-07-16, 00:59:04,VALID,999.717,VALID,0,VALID,56.36,VALID,0,VALID,28.0554,VALID,227,VALID,1.92031,
2009-07-16, 01:00:04,VALID,999.69,VALID,0,VALID,56.2456,VALID,0,VALID,27.9752,VALID,210,VALID,2.73789,
2009-07-16, 01:01:04,VALID,999.705,VALID,0,VALID,56.2608,VALID,0,VALID,27.9947,VALID,183,VALID,2.71406,
2009-07-16, 01:02:04,VALID,999.678,VALID,0,VALID,56.093,VALID,0,VALID,28.0164,VALID,181,VALID,3.79219,
2009-07-16, 01:03:04,VALID,999.683,VALID,0,VALID,56.3142,VALID,0,VALID,27.9556,VALID,194,VALID,3.21055,
2009-07-16, 01:04:04,VALID,999.634,VALID,0,VALID,56.1235,VALID,0,VALID,27.9752,VALID,196,VALID,4.3375,
2009-07-16, 01:05:04,VALID,999.626,VALID,0,VALID,56.2227,VALID,0,VALID,28.0142,VALID,176,VALID,3.35469,
2009-07-16, 01:06:04,VALID,999.627,VALID,0,VALID,56.3829,VALID,0,VALID,28.0359,VALID,192,VALID,3.08008,
2009-07-16, 01:07:04,VALID,999.606,VALID,0,VALID,56.1082,VALID,0,VALID,28.0142,VALID,182,VALID,3.77344,
2009-07-16, 01:08:04,VALID,999.595,VALID,0,VALID,56.299,VALID,0,VALID,28.0142,VALID,189,VALID,3.49883,
2009-07-16, 01:09:04,VALID,999.547,VALID,0,VALID,56.2379,VALID,0,VALID,27.9752,VALID,197,VALID,3.0332,
2009-07-16, 01:10:04,VALID,999.547,VALID,0,VALID,56.505,VALID,0,VALID,27.9947,VALID,183,VALID,2.48477,
2009-07-16, 01:11:04,VALID,999.53,VALID,0,VALID,56.8712,VALID,0,VALID,27.9968,VALID,186,VALID,2.51328,
2009-07-16, 01:12:04,VALID,999.519,VALID,0,VALID,57.0009,VALID,0,VALID,27.9165,VALID,182,VALID,3.13594,
2009-07-16, 01:13:04,VALID,999.471,VALID,0,VALID,56.6728,VALID,0,VALID,27.8775,VALID,204,VALID,1.87305,
2009-07-16, 01:14:04,VALID,999.466,VALID,0,VALID,56.505,VALID,0,VALID,27.9187,VALID,204,VALID,2.72344,
2009-07-16, 01:15:04,VALID,999.46,VALID,0,VALID,56.6804,VALID,0,VALID,27.9361,VALID,204,VALID,2.10781,
2009-07-16, 01:16:04,VALID,999.443,VALID,0,VALID,56.6194,VALID,0,VALID,27.9187,VALID,206,VALID,2.63672,
2009-07-16, 01:17:04,VALID,999.453,VALID,0,VALID,57.0848,VALID,0,VALID,27.897,VALID,177,VALID,2.77813,
2009-07-16, 01:18:04,VALID,999.392,VALID,0,VALID,57.3061,VALID,0,VALID,27.8991,VALID,178,VALID,2.46602,
2009-07-16, 01:19:04,VALID,999.398,VALID,0,VALID,57.3976,VALID,0,VALID,27.8189,VALID,195,VALID,1.98906,
2009-07-16, 01:20:04,VALID,999.417,VALID,0,VALID,57.863,VALID,0,VALID,27.821,VALID,196,VALID,1.98633,
2009-07-16, 01:21:04,VALID,999.416,VALID,0,VALID,57.7181,VALID,0,VALID,27.7798,VALID,198,VALID,1.58242,
2009-07-16, 01:22:04,VALID,999.4,VALID,0,VALID,57.7257,VALID,0,VALID,27.7798,VALID,207,VALID,2.31445,
2009-07-16, 01:23:04,VALID,999.398,VALID,0,VALID,57.5426,VALID,0,VALID,27.7407,VALID,184,VALID,1.75195,
2009-07-16, 01:24:04,VALID,999.369,VALID,0,VALID,58.214,VALID,0,VALID,27.7212,VALID,234,VALID,1.37617,
2009-07-16, 01:25:04,VALID,999.381,VALID,0,VALID,57.4968,VALID,0,VALID,27.7038,VALID,191,VALID,2.77734,
2009-07-16, 01:26:04,VALID,999.391,VALID,0,VALID,57.5044,VALID,0,VALID,27.7407,VALID,215,VALID,1.84531,
2009-07-16, 01:27:04,VALID,999.354,VALID,0,VALID,57.1687,VALID,0,VALID,27.7819,VALID,195,VALID,2.2543,
2009-07-16, 01:28:04,VALID,999.345,VALID,0,VALID,57.4892,VALID,0,VALID,27.7603,VALID,195,VALID,2.88086,
2009-07-16, 01:29:04,VALID,999.335,VALID,0,VALID,57.4358,VALID,0,VALID,27.8014,VALID,203,VALID,2.52344,
2009-07-16, 01:30:04,VALID,999.317,VALID,0,VALID,57.4053,VALID,0,VALID,27.8014,VALID,228,VALID,1.9668,
2009-07-16, 01:31:04,VALID,999.302,VALID,0,VALID,57.2221,VALID,0,VALID,27.821,VALID,207,VALID,2.66758,
2009-07-16, 01:32:04,VALID,999.285,VALID,0,VALID,57.4434,VALID,0,VALID,27.821,VALID,218,VALID,2.76094,
2009-07-16, 01:33:04,VALID,999.303,VALID,0,VALID,57.451,VALID,0,VALID,27.8014,VALID,197,VALID,3.03672,
2009-07-16, 01:34:04,VALID,999.305,VALID,0,VALID,57.451,VALID,0,VALID,27.8014,VALID,178,VALID,2.57891,
2009-07-16, 01:35:04,VALID,999.289,VALID,0,VALID,57.451,VALID,0,VALID,27.7603,VALID,173,VALID,3.1582,
2009-07-16, 01:36:04,VALID,999.286,VALID,0,VALID,57.2756,VALID,0.112286,VALID,27.7407,VALID,205,VALID,2.62617,
2009-07-16, 01:37:04,VALID,999.312,VALID,0,VALID,57.1306,VALID,0,VALID,27.8014,VALID,203,VALID,2.28477,
2009-07-16, 01:38:04,VALID,999.283,VALID,0,VALID,57.2679,VALID,0,VALID,27.7993,VALID,180,VALID,2.64922,
2009-07-16, 01:39:04,VALID,999.275,VALID,0,VALID,57.2679,VALID,0,VALID,27.7798,VALID,209,VALID,2.0418,
2009-07-16, 01:40:04,VALID,999.272,VALID,0,VALID,57.2298,VALID,0,VALID,27.7624,VALID,201,VALID,3.14141,
2009-07-16, 01:41:04,VALID,999.29,VALID,0,VALID,57.3824,VALID,0,VALID,27.7603,VALID,196,VALID,3.02695,
2009-07-16, 01:42:04,VALID,999.336,VALID,0,VALID,57.3595,VALID,0,VALID,27.7603,VALID,190,VALID,2.6918,
2009-07-16, 01:43:04,VALID,999.353,VALID,0,VALID,57.8859,VALID,0,VALID,27.7407,VALID,185,VALID,3.39414,
2009-07-16, 01:44:04,VALID,999.354,VALID,0,VALID,58.0462,VALID,0,VALID,27.6842,VALID,187,VALID,1.93672,
2009-07-16, 01:45:04,VALID,999.338,VALID,0,VALID,58.2369,VALID,0,VALID,27.6235,VALID,177,VALID,2.37266,
2009-07-16, 01:46:04,VALID,999.338,VALID,0,VALID,58.4047,VALID,0,VALID,27.604,VALID,167,VALID,2.80352,
2009-07-16, 01:47:04,VALID,999.329,VALID,0,VALID,58.4734,VALID,0,VALID,27.5649,VALID,168,VALID,2.87227,
2009-07-16, 01:48:04,VALID,999.326,VALID,0,VALID,58.5192,VALID,0,VALID,27.4868,VALID,169,VALID,2.61172,
2009-07-16, 01:49:04,VALID,999.349,VALID,0,VALID,59.1143,VALID,0,VALID,27.4477,VALID,186,VALID,2.19336,
2009-07-16, 01:50:04,VALID,999.356,VALID,0,VALID,58.8701,VALID,0,VALID,27.4868,VALID,184,VALID,2.46094,
2009-07-16, 01:51:04,VALID,999.355,VALID,0,VALID,58.2827,VALID,0,VALID,27.5063,VALID,176,VALID,3.64609,
2009-07-16, 01:52:04,VALID,999.372,VALID,0,VALID,58.4505,VALID,0,VALID,27.5258,VALID,175,VALID,3.19102,
2009-07-16, 01:53:04,VALID,999.365,VALID,0,VALID,58.275,VALID,0,VALID,27.4868,VALID,180,VALID,3.22383,
2009-07-16, 01:54:04,VALID,999.365,VALID,0,VALID,58.0538,VALID,0,VALID,27.5649,VALID,176,VALID,3.99062,
2009-07-16, 01:55:04,VALID,999.35,VALID,0,VALID,57.802,VALID,0,VALID,27.6235,VALID,182,VALID,2.91523,
2009-07-16, 01:56:04,VALID,999.337,VALID,0,VALID,57.8859,VALID,0,VALID,27.6235,VALID,174,VALID,2.92578,
2009-07-16, 01:57:04,VALID,999.306,VALID,0,VALID,57.4968,VALID,0,VALID,27.6626,VALID,172,VALID,3.56055,
2009-07-16, 01:58:04,VALID,999.346,VALID,0,VALID,57.4816,VALID,0,VALID,27.6821,VALID,171,VALID,3.49336,
2009-07-16, 01:59:04,VALID,999.351,VALID,0,VALID,57.6723,VALID,0,VALID,27.6842,VALID,166,VALID,3.83477,
2009-07-16, 02:00:04,VALID,999.355,VALID,0,VALID,58.2674,VALID,0,VALID,27.6452,VALID,150,VALID,2.82266,
2009-07-16, 02:01:04,VALID,999.334,VALID,0,VALID,58.275,VALID,0,VALID,27.5865,VALID,161,VALID,4.06641,
2009-07-16, 02:02:04,VALID,999.341,VALID,0,VALID,58.153,VALID,0,VALID,27.5649,VALID,201,VALID,3.87188,
2009-07-16, 02:03:04,VALID,999.332,VALID,0,VALID,57.6723,VALID,0,VALID,27.6626,VALID,194,VALID,3.08828,
2009-07-16, 02:04:04,VALID,999.343,VALID,0,VALID,57.6342,VALID,0,VALID,27.6626,VALID,178,VALID,3.5457,
2009-07-16, 02:05:04,VALID,999.346,VALID,0,VALID,57.6799,VALID,0,VALID,27.6452,VALID,181,VALID,3.68711,
2009-07-16, 02:06:04,VALID,999.319,VALID,0,VALID,57.8859,VALID,0,VALID,27.6647,VALID,170,VALID,5.53008,
2009-07-16, 02:07:04,VALID,999.307,VALID,0,VALID,57.8325,VALID,0,VALID,27.6431,VALID,182,VALID,4.47813,
2009-07-16, 02:08:04,VALID,999.301,VALID,0,VALID,57.6799,VALID,0,VALID,27.6647,VALID,182,VALID,4.85039,
2009-07-16, 02:09:04,VALID,999.324,VALID,0,VALID,58.2216,VALID,0,VALID,27.6626,VALID,170,VALID,4.11992,
2009-07-16, 02:10:04,VALID,999.298,VALID,0,VALID,57.8554,VALID,0,VALID,27.6235,VALID,171,VALID,5.39648,
2009-07-16, 02:11:04,VALID,999.262,VALID,0,VALID,57.6876,VALID,0,VALID,27.6431,VALID,172,VALID,4.95625,
2009-07-16, 02:12:04,VALID,999.263,VALID,0,VALID,58.0462,VALID,0,VALID,27.6647,VALID,165,VALID,3.95078,
2009-07-16, 02:13:04,VALID,999.266,VALID,0,VALID,57.8096,VALID,0,VALID,27.7038,VALID,178,VALID,5.29023,
2009-07-16, 02:14:04,VALID,999.28,VALID,0,VALID,57.8859,VALID,0,VALID,27.7038,VALID,180,VALID,4.93242,
2009-07-16, 02:15:04,VALID,999.298,VALID,0,VALID,57.5807,VALID,0,VALID,27.7233,VALID,181,VALID,5.31797,
2009-07-16, 02:16:04,VALID,999.304,VALID,0,VALID,58.5116,VALID,0,VALID,27.6431,VALID,174,VALID,4.8875,
2009-07-16, 02:17:04,VALID,999.293,VALID,0,VALID,57.8783,VALID,0,VALID,27.6452,VALID,171,VALID,5.66719,
2009-07-16, 02:18:04,VALID,999.294,VALID,0,VALID,57.6723,VALID,0,VALID,27.6821,VALID,185,VALID,5.0043,
2009-07-16, 02:19:04,VALID,999.31,VALID,0,VALID,57.8936,VALID,0,VALID,27.6821,VALID,174,VALID,5.85352,
2009-07-16, 02:20:04,VALID,999.276,VALID,0,VALID,58.0462,VALID,0,VALID,27.6626,VALID,181,VALID,6.4582,
2009-07-16, 02:21:04,VALID,999.253,VALID,0,VALID,57.741,VALID,0,VALID,27.7233,VALID,174,VALID,5.67344,
2009-07-16, 02:22:04,VALID,999.287,VALID,0,VALID,58.0156,VALID,0,VALID,27.6821,VALID,185,VALID,4.86836,
2009-07-16, 02:23:04,VALID,999.222,VALID,0,VALID,58.0996,VALID,0,VALID,27.6821,VALID,185,VALID,3.71328,
2009-07-16, 02:24:04,VALID,999.222,VALID,0,VALID,58.1072,VALID,0,VALID,27.6431,VALID,178,VALID,5.17812,
2009-07-16, 02:25:04,VALID,999.242,VALID,0,VALID,58.4353,VALID,0,VALID,27.6431,VALID,184,VALID,4.45586,
2009-07-16, 02:26:04,VALID,999.201,VALID,0,VALID,58.3819,VALID,0,VALID,27.6256,VALID,185,VALID,4.23789,
2009-07-16, 02:27:04,VALID,999.155,VALID,0,VALID,58.1682,VALID,0,VALID,27.6431,VALID,181,VALID,6.37109,
2009-07-16, 02:28:04,VALID,999.19,VALID,0,VALID,58.5116,VALID,0,VALID,27.604,VALID,179,VALID,4.53672,
2009-07-16, 02:29:04,VALID,999.171,VALID,0,VALID,58.5497,VALID,0,VALID,27.5845,VALID,192,VALID,4.22891,
2009-07-16, 02:30:04,VALID,999.14,VALID,0,VALID,58.7252,VALID,0,VALID,27.5845,VALID,178,VALID,5.46289,
2009-07-16, 02:31:04,VALID,999.169,VALID,0,VALID,58.6184,VALID,0,VALID,27.604,VALID,188,VALID,4.73047,
2009-07-16, 02:32:04,VALID,999.19,VALID,0,VALID,58.6031,VALID,0,VALID,27.6452,VALID,178,VALID,4.05312,
2009-07-16, 02:33:04,VALID,999.176,VALID,0,VALID,58.6336,VALID,0,VALID,27.604,VALID,177,VALID,3.32031,
2009-07-16, 02:34:04,VALID,999.193,VALID,0,VALID,58.7328,VALID,0,VALID,27.5845,VALID,173,VALID,4.79023,
2009-07-16, 02:35:04,VALID,999.155,VALID,0,VALID,59.1372,VALID,0,VALID,27.5258,VALID,179,VALID,4.34062,
2009-07-16, 02:36:04,VALID,999.191,VALID,0,VALID,59.0838,VALID,0,VALID,27.5063,VALID,185,VALID,4.46875,
2009-07-16, 02:37:04,VALID,999.226,VALID,0,VALID,58.9541,VALID,0,VALID,27.5454,VALID,182,VALID,5.53984,
2009-07-16, 02:38:04,VALID,999.183,VALID,0,VALID,58.9159,VALID,0,VALID,27.5258,VALID,186,VALID,4.59609,
2009-07-16, 02:39:04,VALID,999.221,VALID,0,VALID,58.7099,VALID,0,VALID,27.5454,VALID,190,VALID,5.29297,
2009-07-16, 02:40:04,VALID,999.167,VALID,0,VALID,58.8244,VALID,0,VALID,27.5845,VALID,184,VALID,4.49453,
2009-07-16, 02:41:04,VALID,999.157,VALID,0,VALID,58.8625,VALID,0,VALID,27.5649,VALID,191,VALID,4.79492,
2009-07-16, 02:42:04,VALID,999.142,VALID,0,VALID,58.7939,VALID,0,VALID,27.5845,VALID,190,VALID,5.51836,
2009-07-16, 02:43:04,VALID,999.154,VALID,0,VALID,58.9693,VALID,0,VALID,27.5649,VALID,177,VALID,4.94766,
2009-07-16, 02:44:04,VALID,999.116,VALID,0,VALID,59.0151,VALID,0,VALID,27.5475,VALID,173,VALID,5.44766,
2009-07-16, 02:45:04,VALID,999.112,VALID,0,VALID,59.305,VALID,0,VALID,27.4868,VALID,176,VALID,5.56719,
2009-07-16, 02:46:04,VALID,999.113,VALID,0,VALID,59.3813,VALID,0,VALID,27.4477,VALID,175,VALID,6.18125,
2009-07-16, 02:47:04,VALID,999.156,VALID,0,VALID,59.6941,VALID,0,VALID,27.3891,VALID,173,VALID,4.42227,
2009-07-16, 02:48:04,VALID,999.151,VALID,0,VALID,59.1448,VALID,0,VALID,27.4477,VALID,179,VALID,3.96758,
2009-07-16, 02:49:04,VALID,999.157,VALID,0,VALID,59.2669,VALID,0,VALID,27.4498,VALID,174,VALID,3.40703,
2009-07-16, 02:50:04,VALID,999.09,VALID,0,VALID,59.305,VALID,0,VALID,27.4107,VALID,172,VALID,5.89492,
2009-07-16, 02:51:04,VALID,999.163,VALID,0,VALID,59.5339,VALID,0,VALID,27.3696,VALID,178,VALID,4.33906,
2009-07-16, 02:52:04,VALID,999.158,VALID,0,VALID,59.7857,VALID,0,VALID,27.35,VALID,175,VALID,4.10977,
2009-07-16, 02:53:04,VALID,999.202,VALID,0,VALID,59.8544,VALID,0,VALID,27.3305,VALID,179,VALID,5.16367,
2009-07-16, 02:54:04,VALID,999.149,VALID,0,VALID,59.3356,VALID,0,VALID,27.3696,VALID,183,VALID,4.27773,
2009-07-16, 02:55:04,VALID,999.173,VALID,0,VALID,59.2364,VALID,0,VALID,27.4303,VALID,168,VALID,4.52852,
2009-07-16, 02:56:04,VALID,999.117,VALID,0,VALID,59.2974,VALID,0.112286,VALID,27.387,VALID,163,VALID,5.63984,
2009-07-16, 02:57:04,VALID,999.158,VALID,0,VALID,59.1524,VALID,0.112286,VALID,27.4282,VALID,175,VALID,5.82813,
2009-07-16, 02:58:04,VALID,999.164,VALID,0,VALID,58.6794,VALID,0.112286,VALID,27.5042,VALID,147,VALID,3.98086,
2009-07-16, 02:59:04,VALID,999.127,VALID,0,VALID,58.8015,VALID,0.112286,VALID,27.5238,VALID,188,VALID,3.82813,
2009-07-16, 03:00:04,VALID,999.111,VALID,0,VALID,58.6336,VALID,0,VALID,27.5063,VALID,183,VALID,6.23203,
2009-07-16, 03:01:04,VALID,999.135,VALID,0,VALID,58.4963,VALID,0.112286,VALID,27.5433,VALID,181,VALID,5.30703,
2009-07-16, 03:02:04,VALID,999.171,VALID,0,VALID,58.5039,VALID,0,VALID,27.5845,VALID,180,VALID,4.73945,
2009-07-16, 03:03:04,VALID,999.17,VALID,0,VALID,58.7099,VALID,0,VALID,27.5433,VALID,175,VALID,3.94922,
2009-07-16, 03:04:04,VALID,999.128,VALID,0,VALID,58.5116,VALID,0.112286,VALID,27.5454,VALID,172,VALID,5.59023,
2009-07-16, 03:05:04,VALID,999.152,VALID,0,VALID,58.5268,VALID,0,VALID,27.5238,VALID,180,VALID,5.57305,
2009-07-16, 03:06:04,VALID,999.118,VALID,0,VALID,58.5116,VALID,0.112286,VALID,27.5649,VALID,189,VALID,4.39258,
2009-07-16, 03:07:04,VALID,999.128,VALID,0,VALID,58.3208,VALID,0,VALID,27.5433,VALID,178,VALID,5.14453,
2009-07-16, 03:08:04,VALID,999.179,VALID,0,VALID,58.2216,VALID,0,VALID,27.5433,VALID,190,VALID,5.6875,
2009-07-16, 03:09:04,VALID,999.141,VALID,0,VALID,58.2979,VALID,0,VALID,27.5824,VALID,187,VALID,4.075,
2009-07-16, 03:10:04,VALID,999.077,VALID,0,VALID,58.1987,VALID,0,VALID,27.5845,VALID,197,VALID,4.55312,
2009-07-16, 03:11:04,VALID,999.145,VALID,0,VALID,58.4505,VALID,0.112286,VALID,27.5433,VALID,181,VALID,4.49375,
2009-07-16, 03:12:04,VALID,999.106,VALID,0,VALID,58.8549,VALID,0,VALID,27.4652,VALID,172,VALID,4.09609,
2009-07-16, 03:13:04,VALID,999.179,VALID,0,VALID,59.0304,VALID,0.112286,VALID,27.387,VALID,180,VALID,5.40898,
2009-07-16, 03:14:04,VALID,999.118,VALID,0,VALID,58.5344,VALID,0.112286,VALID,27.4282,VALID,181,VALID,4.84922,
2009-07-16, 03:15:04,VALID,999.107,VALID,0,VALID,58.1835,VALID,0.112286,VALID,27.5454,VALID,179,VALID,5.24453,
2009-07-16, 03:16:04,VALID,999.112,VALID,0,VALID,58.0614,VALID,0.112286,VALID,27.5628,VALID,181,VALID,3.91602,
2009-07-16, 03:17:04,VALID,999.16,VALID,0,VALID,58.3056,VALID,0.112286,VALID,27.5433,VALID,170,VALID,3.67852,
2009-07-16, 03:18:04,VALID,999.136,VALID,0,VALID,58.9312,VALID,0.112286,VALID,27.4456,VALID,175,VALID,3.11523,
2009-07-16, 03:19:04,VALID,999.138,VALID,0,VALID,58.7023,VALID,0.112286,VALID,27.3675,VALID,174,VALID,4.6957,
2009-07-16, 03:20:04,VALID,999.172,VALID,0,VALID,59.1677,VALID,0.112286,VALID,27.3284,VALID,173,VALID,4.00078,
2009-07-16, 03:21:04,VALID,999.167,VALID,0,VALID,59.3279,VALID,0.112286,VALID,27.3089,VALID,163,VALID,3.02344,
2009-07-16, 03:22:04,VALID,999.156,VALID,0,VALID,59.4195,VALID,0.112286,VALID,27.2113,VALID,166,VALID,4.01094,
2009-07-16, 03:23:04,VALID,999.138,VALID,0,VALID,58.8015,VALID,0,VALID,27.2503,VALID,163,VALID,3.84297,
2009-07-16, 03:24:04,VALID,999.136,VALID,0,VALID,58.6947,VALID,0.112286,VALID,27.3284,VALID,193,VALID,4.04688,
2009-07-16, 03:25:04,VALID,999.162,VALID,0,VALID,58.9083,VALID,0,VALID,27.3696,VALID,169,VALID,4.58164,
2009-07-16, 03:26:04,VALID,999.192,VALID,0,VALID,58.7862,VALID,0,VALID,27.35,VALID,165,VALID,4.30039,
2009-07-16, 03:27:04,VALID,999.175,VALID,0,VALID,58.8473,VALID,0,VALID,27.3284,VALID,180,VALID,3.66797,
2009-07-16, 03:28:04,VALID,999.176,VALID,0,VALID,58.5344,VALID,0.112286,VALID,27.35,VALID,196,VALID,3.11875,
2009-07-16, 03:29:04,VALID,999.193,VALID,0,VALID,58.3437,VALID,0,VALID,27.4261,VALID,183,VALID,4.63125,
2009-07-16, 03:30:04,VALID,999.159,VALID,0,VALID,58.4658,VALID,0.112286,VALID,27.4456,VALID,174,VALID,2.68867,
2009-07-16, 03:31:04,VALID,999.18,VALID,0,VALID,58.5497,VALID,0.112286,VALID,27.4086,VALID,166,VALID,4.72227,
2009-07-16, 03:32:04,VALID,999.167,VALID,0,VALID,58.687,VALID,0.112286,VALID,27.3675,VALID,178,VALID,4.91758,
2009-07-16, 03:33:04,VALID,999.172,VALID,0,VALID,58.1301,VALID,0.112286,VALID,27.4066,VALID,182,VALID,4.29492,
2009-07-16, 03:34:04,VALID,999.177,VALID,0,VALID,57.9851,VALID,0,VALID,27.5063,VALID,176,VALID,3.55898,
2009-07-16, 03:35:04,VALID,999.195,VALID,0,VALID,57.9546,VALID,0.112286,VALID,27.5238,VALID,177,VALID,3.29805,
2009-07-16, 03:36:04,VALID,999.237,VALID,0,VALID,57.9851,VALID,0,VALID,27.5454,VALID,173,VALID,2.58594,
2009-07-16, 03:37:04,VALID,999.244,VALID,0,VALID,58.1453,VALID,0.112286,VALID,27.4847,VALID,176,VALID,3.40625,
2009-07-16, 03:38:04,VALID,999.188,VALID,0,VALID,58.3819,VALID,0,VALID,27.4456,VALID,184,VALID,2.29102,
2009-07-16, 03:39:04,VALID,999.207,VALID,0,VALID,58.6947,VALID,0,VALID,27.4066,VALID,169,VALID,3.10352,
2009-07-16, 03:40:04,VALID,999.159,VALID,0,VALID,58.4581,VALID,0,VALID,27.387,VALID,155,VALID,3.95781,
2009-07-16, 03:41:04,VALID,999.129,VALID,0,VALID,58.1682,VALID,0,VALID,27.3891,VALID,168,VALID,4.56484,
2009-07-16, 03:42:04,VALID,999.093,VALID,0,VALID,56.9627,VALID,0,VALID,27.6061,VALID,205,VALID,3.63086,
2009-07-16, 03:43:04,VALID,999.135,VALID,0,VALID,56.9017,VALID,0,VALID,27.7212,VALID,182,VALID,3.82695,
2009-07-16, 03:44:05,VALID,999.119,VALID,0,VALID,57.0924,VALID,0,VALID,27.7017,VALID,200,VALID,3.7793,